Location: Rounton
(54.4000°N, 1.3500°W)
Time: 02:56:56
(UTC+00:00)

SR - Pass Details

Date: 07 December 2021
Orbit: 582 x 872 km, 66.7° (Epoch: 26 January)

Event Time Altitude Azimuth Distance (km) Brightness Sun altitude
Exits shadow 05:46:16 25° 345° (NNW) 1,198 ? -19.7°
Maximum altitude 05:48:12 40° 37° (NE) 885 ? -19.5°
Drops below altitude 10° 05:52:22 10° 108° (ESE) 1,973 ? -18.9°
Sets 05:54:47 0° 116° (ESE) 2,911 ? -18.5°
